Location: Ailingen
(47.6833°N, 9.5000°E)
Time: 05:19:40
(UTC+00:00)

Cosmos 1092 Rocket - Pass Details

Date: 18 November 2025
Orbit: 953 x 994 km, 82.9° (Epoch: 04 December)

Event Time Altitude Azimuth Distance (km) Brightness Sun altitude
Rises 18:08:14 0° 351° (N) 3,693 7.1 -24.4°
Reaches altitude 10° 18:10:47 10° 353° (N) 2,735 6.4 -24.8°
Maximum altitude 18:17:03 81° 80° (E) 986 3.8 -25.9°
Drops below altitude 10° 18:23:14 10° 169° (S) 2,689 6.2 -26.9°
Sets 18:25:42 0° 170° (S) 3,626 6.9 -27.3°
